| time (UTC) | temp F | wind direction | speed MPH | gust MPH | rain 1hr in | rain 24hr in | rain mn in | humidity % | barometer mb |
| 20260504160141 | 71 | 216 | 2.0 | 9.0 | 0.00 | 0.00 | 0.00 | 34 | 1010.8 |
| 20260504151108 | 67 | 198 | 11.0 | 15.0 | 0.00 | 0.00 | 0.00 | 36 | 1011.0 |
| 20260504150606 | 67 | 179 | 4.0 | 10.0 | 0.00 | 0.00 | 0.00 | 39 | 1011.0 |
| 20260504141032 | 64 | 179 | 4.0 | 9.0 | 0.00 | 0.00 | 0.00 | 45 | 1011.3 |
| 20260504140528 | 63 | 145 | 6.0 | 7.0 | 0.00 | 0.00 | 0.00 | 44 | 1011.4 |
| 20260504130452 | 57 | 131 | 5.0 | 7.0 | 0.00 | 0.00 | 0.00 | 51 | 1011.9 |
| 20260504110339 | 44 | 145 | 0.0 | 0.0 | 0.00 | 0.00 | 0.00 | 82 | 1012.4 |
| 20260504100257 | 44 | 45 | 0.0 | 0.0 | 0.00 | 0.00 | 0.00 | 80 | 1012.4 |
| 20260504081650 | 44 | 73 | 0.0 | 0.0 | 0.00 | 0.00 | 0.00 | 78 | 1012.8 |
| 20260504081146 | 44 | 73 | 0.0 | 0.0 | 0.00 | 0.00 | 0.00 | 79 | 1012.6 |
| 20260504080643 | 44 | 73 | 0.0 | 0.0 | 0.00 | 0.00 | 0.00 | 79 | 1012.7 |
| 20260504080139 | 44 | 72 | 0.0 | 0.0 | 0.00 | 0.00 | 0.00 | 79 | 1012.9 |
| 20260504070108 | 44 | 99 | 0.0 | 0.0 | 0.00 | 0.00 | 0.00 | 77 | 1013.0 |
| 20260504050456 | 43 | 114 | 0.0 | 0.0 | 0.00 | 0.00 | 0.00 | 72 | 1013.5 |
| 20260504045953 | 43 | 115 | 0.0 | 0.0 | 0.00 | 0.00 | 0.00 | 73 | 1013.4 |
| 20260504045449 | 43 | 115 | 0.0 | 0.0 | 0.00 | 0.00 | 0.00 | 72 | 1013.5 |
| 20260504044945 | 43 | 114 | 0.0 | 0.0 | 0.00 | 0.00 | 0.00 | 69 | 1013.5 |
| 20260504044443 | 43 | 114 | 0.0 | 0.0 | 0.00 | 0.00 | 0.00 | 71 | 1013.6 |
| 20260504043940 | 43 | 122 | 1.0 | 1.0 | 0.00 | 0.00 | 0.00 | 71 | 1013.5 |
| 20260504043437 | 43 | 128 | 0.0 | 0.0 | 0.00 | 0.00 | 0.00 | 73 | 1013.6 |
| 20260504042934 | 43 | 124 | 1.0 | 1.0 | 0.00 | 0.00 | 0.00 | 73 | 1013.5 |
| 20260504042431 | 43 | 95 | 0.0 | 0.0 | 0.00 | 0.00 | 0.00 | 70 | 1013.5 |
| 20260504041927 | 43 | 95 | 0.0 | 0.0 | 0.00 | 0.00 | 0.00 | 70 | 1013.6 |
| 20260504041424 | 43 | 117 | 0.0 | 0.0 | 0.00 | 0.00 | 0.00 | 69 | 1013.6 |
| 20260504040920 | 43 | 101 | 0.0 | 0.0 | 0.00 | 0.00 | 0.00 | 72 | 1013.8 |
| 20260504040418 | 43 | 102 | 0.0 | 0.0 | 0.00 | 0.00 | 0.00 | 69 | 1013.6 |
| 20260504035913 | 43 | 98 | 1.0 | 1.0 | 0.00 | 0.00 | 0.00 | 65 | 1013.6 |
| 20260504035411 | 43 | 97 | 0.0 | 1.0 | 0.00 | 0.00 | 0.00 | 67 | 1014.0 |
| 20260504034907 | 42 | 97 | 1.0 | 1.0 | 0.00 | 0.00 | 0.00 | 68 | 1013.9 |
| 20260504034405 | 42 | 110 | 0.0 | 2.0 | 0.00 | 0.00 | 0.00 | 71 | 1013.8 |
| 20260504033902 | 43 | 6 | 0.0 | 1.0 | 0.00 | 0.00 | 0.00 | 69 | 1013.8 |
| 20260504033400 | 43 | 120 | 0.0 | 1.0 | 0.00 | 0.00 | 0.00 | 64 | 1013.9 |
| 20260504032856 | 42 | 129 | 0.0 | 1.0 | 0.00 | 0.00 | 0.00 | 66 | 1013.6 |
| 20260504032353 | 42 | 131 | 2.0 | 2.0 | 0.00 | 0.00 | 0.00 | 74 | 1013.6 |
| 20260504031850 | 42 | 108 | 0.0 | 0.0 | 0.00 | 0.00 | 0.00 | 69 | 1013.6 |
| 20260504031347 | 43 | 108 | 0.0 | 0.0 | 0.00 | 0.00 | 0.00 | 69 | 1013.9 |
| 20260504030843 | 44 | 119 | 0.0 | 1.0 | 0.00 | 0.00 | 0.00 | 64 | 1013.8 |
| 20260504030341 | 43 | 133 | 0.0 | 0.0 | 0.00 | 0.00 | 0.00 | 67 | 1013.9 |
| 20260504025837 | 43 | 91 | 0.0 | 1.0 | 0.00 | 0.00 | 0.00 | 65 | 1013.9 |
| 20260504025334 | 44 | 126 | 0.0 | 0.0 | 0.00 | 0.00 | 0.00 | 63 | 1013.5 |
| 20260504024830 | 43 | 167 | 0.0 | 0.0 | 0.00 | 0.00 | 0.00 | 67 | 1014.0 |
| 20260504024327 | 43 | 201 | 0.0 | 1.0 | 0.00 | 0.00 | 0.00 | 66 | 1013.9 |
| 20260504023824 | 43 | 204 | 0.0 | 0.0 | 0.00 | 0.00 | 0.00 | 65 | 1013.6 |
| 20260504023320 | 43 | 133 | 0.0 | 0.0 | 0.00 | 0.00 | 0.00 | 62 | 1013.8 |
| 20260504022816 | 44 | 99 | 0.0 | 0.0 | 0.00 | 0.00 | 0.00 | 64 | 1013.6 |
| 20260504022313 | 45 | 100 | 1.0 | 1.0 | 0.00 | 0.00 | 0.00 | 62 | 1013.8 |
| 20260504021809 | 45 | 163 | 0.0 | 0.0 | 0.00 | 0.00 | 0.00 | 60 | 1013.8 |
| 20260504021308 | 46 | 138 | 0.0 | 1.0 | 0.00 | 0.00 | 0.00 | 58 | 1014.0 |
| 20260504020804 | 46 | 138 | 0.0 | 0.0 | 0.00 | 0.00 | 0.00 | 56 | 1013.8 |
| 20260504020301 | 46 | 166 | 0.0 | 1.0 | 0.00 | 0.00 | 0.00 | 56 | 1013.8 |
| 20260504015757 | 47 | 160 | 0.0 | 1.0 | 0.00 | 0.00 | 0.00 | 55 | 1013.6 |
| 20260504015253 | 47 | 187 | 0.0 | 1.0 | 0.00 | 0.00 | 0.00 | 53 | 1013.5 |
| 20260504014749 | 47 | 128 | 0.0 | 0.0 | 0.00 | 0.00 | 0.00 | 53 | 1013.6 |
| 20260504014246 | 47 | 128 | 0.0 | 2.0 | 0.00 | 0.00 | 0.00 | 53 | 1013.4 |
| 20260504013744 | 47 | 103 | 1.0 | 2.0 | 0.00 | 0.00 | 0.00 | 53 | 1013.6 |
| 20260504013241 | 47 | 107 | 1.0 | 2.0 | 0.00 | 0.00 | 0.00 | 51 | 1013.5 |
| 20260504012737 | 47 | 108 | 2.0 | 2.0 | 0.00 | 0.00 | 0.00 | 51 | 1013.2 |
| 20260504012235 | 48 | 83 | 2.0 | 3.0 | 0.00 | 0.00 | 0.00 | 53 | 1013.2 |
| 20260504011732 | 47 | 94 | 1.0 | 1.0 | 0.00 | 0.00 | 0.00 | 52 | 1013.2 |
| 20260504011229 | 48 | 104 | 1.0 | 2.0 | 0.00 | 0.00 | 0.00 | 50 | 1013.2 |
| 20260504010725 | 48 | 89 | 1.0 | 1.0 | 0.00 | 0.00 | 0.00 | 51 | 1013.2 |
| 20260504010220 | 48 | 137 | 2.0 | 2.0 | 0.00 | 0.00 | 0.00 | 50 | 1013.2 |
| 20260504005717 | 49 | 111 | 1.0 | 2.0 | 0.00 | 0.00 | 0.00 | 48 | 1013.2 |
| 20260504005214 | 50 | 100 | 1.0 | 1.0 | 0.00 | 0.00 | 0.00 | 47 | 1013.2 |
| 20260504004712 | 50 | 102 | 1.0 | 1.0 | 0.00 | 0.00 | 0.00 | 45 | 1012.9 |
| 20260504004209 | 51 | 110 | 1.0 | 1.0 | 0.00 | 0.00 | 0.00 | 43 | 1013.1 |
| 20260504003706 | 52 | 100 | 0.0 | 1.0 | 0.00 | 0.00 | 0.00 | 41 | 1013.1 |
| 20260504003202 | 53 | 107 | 1.0 | 1.0 | 0.00 | 0.00 | 0.00 | 41 | 1013.2 |
| 20260504002659 | 53 | 126 | 1.0 | 1.0 | 0.00 | 0.00 | 0.00 | 40 | 1013.0 |
| 20260504002156 | 54 | 181 | 0.0 | 0.0 | 0.00 | 0.00 | 0.00 | 38 | 1013.0 |
| 20260504001654 | 54 | 181 | 0.0 | 1.0 | 0.00 | 0.00 | 0.00 | 40 | 1013.1 |
| 20260504001150 | 54 | 210 | 0.0 | 0.0 | 0.00 | 0.00 | 0.00 | 37 | 1013.0 |
| 20260504000647 | 55 | 211 | 1.0 | 1.0 | 0.00 | 0.00 | 0.00 | 37 | 1013.0 |
| 20260504000145 | 55 | 256 | 0.0 | 0.0 | 0.00 | 0.00 | 0.00 | 36 | 1013.0 |
| 20260503235643 | 56 | 290 | 0.0 | 0.0 | 0.00 | 0.00 | 0.00 | 36 | 1013.1 |
| 20260503235139 | 57 | 280 | 0.0 | 2.0 | 0.00 | 0.00 | 0.00 | 34 | 1013.0 |
| 20260503234637 | 57 | 272 | 1.0 | 3.0 | 0.00 | 0.00 | 0.00 | 34 | 1013.1 |
| 20260503234135 | 58 | 274 | 2.0 | 3.0 | 0.00 | 0.00 | 0.00 | 33 | 1013.0 |
| 20260503233632 | 59 | 290 | 0.0 | 1.0 | 0.00 | 0.00 | 0.00 | 31 | 1013.0 |
| 20260503233127 | 60 | 273 | 1.0 | 3.0 | 0.00 | 0.00 | 0.00 | 30 | 1013.1 |
| 20260503232625 | 61 | 312 | 1.0 | 4.0 | 0.00 | 0.00 | 0.00 | 30 | 1013.2 |
| 20260503232122 | 61 | 274 | 2.0 | 4.0 | 0.00 | 0.00 | 0.00 | 28 | 1012.9 |
| 20260503231620 | 61 | 320 | 2.0 | 3.0 | 0.00 | 0.00 | 0.00 | 29 | 1013.0 |
| 20260503231116 | 62 | 309 | 2.0 | 6.0 | 0.00 | 0.00 | 0.00 | 28 | 1013.1 |
| 20260503230613 | 62 | 301 | 1.0 | 3.0 | 0.00 | 0.00 | 0.00 | 29 | 1013.1 |
| 20260503230110 | 62 | 286 | 1.0 | 2.0 | 0.00 | 0.00 | 0.00 | 30 | 1013.0 |
| 20260503225608 | 63 | 275 | 1.0 | 3.0 | 0.00 | 0.00 | 0.00 | 28 | 1013.0 |
| 20260503225102 | 62 | 30 | 4.0 | 6.0 | 0.00 | 0.00 | 0.00 | 27 | 1013.0 |
| 20260503224600 | 62 | 349 | 2.0 | 6.0 | 0.00 | 0.00 | 0.00 | 28 | 1013.0 |
| 20260503224058 | 62 | 341 | 4.0 | 6.0 | 0.00 | 0.00 | 0.00 | 27 | 1012.9 |
| 20260503223556 | 63 | 321 | 2.0 | 7.0 | 0.00 | 0.00 | 0.00 | 29 | 1012.9 |
| 20260503223051 | 64 | 279 | 3.0 | 7.0 | 0.00 | 0.00 | 0.00 | 27 | 1012.9 |
| 20260503222549 | 63 | 318 | 2.0 | 4.0 | 0.00 | 0.00 | 0.00 | 30 | 1013.1 |
| 20260503222047 | 62 | 275 | 3.0 | 7.0 | 0.00 | 0.00 | 0.00 | 27 | 1012.7 |
| 20260503221545 | 63 | 295 | 3.0 | 7.0 | 0.00 | 0.00 | 0.00 | 28 | 1012.9 |
| 20260503221042 | 63 | 282 | 6.0 | 9.0 | 0.00 | 0.00 | 0.00 | 27 | 1012.8 |
| 20260503220538 | 63 | 251 | 4.0 | 8.0 | 0.00 | 0.00 | 0.00 | 27 | 1012.9 |
| 20260503220035 | 63 | 288 | 3.0 | 7.0 | 0.00 | 0.00 | 0.00 | 29 | 1013.0 |
| 20260503215532 | 63 | 247 | 4.0 | 6.0 | 0.00 | 0.00 | 0.00 | 27 | 1013.1 |
| 20260503215029 | 63 | 280 | 4.0 | 7.0 | 0.00 | 0.00 | 0.00 | 27 | 1013.1 |
| 20260503214527 | 63 | 248 | 2.0 | 6.0 | 0.00 | 0.00 | 0.00 | 30 | 1013.1 |
| 20260503214024 | 62 | 249 | 3.0 | 10.0 | 0.00 | 0.00 | 0.00 | 28 | 1013.4 |
| 20260503213522 | 63 | 34 | 1.0 | 11.0 | 0.00 | 0.00 | 0.00 | 29 | 1013.3 |
| 20260503213018 | 62 | 258 | 5.0 | 9.0 | 0.00 | 0.00 | 0.00 | 30 | 1013.0 |
| 20260503212516 | 62 | 174 | 5.0 | 9.0 | 0.00 | 0.00 | 0.00 | 30 | 1013.3 |
| 20260503212013 | 62 | 314 | 4.0 | 8.0 | 0.00 | 0.00 | 0.00 | 28 | 1013.0 |
| 20260503211510 | 62 | 247 | 11.0 | 14.0 | 0.00 | 0.00 | 0.00 | 28 | 1013.0 |
| 20260503211011 | 63 | 277 | 5.0 | 10.0 | 0.00 | 0.00 | 0.00 | 28 | 1013.0 |
| 20260503210508 | 61 | 245 | 8.0 | 11.0 | 0.00 | 0.00 | 0.00 | 27 | 1012.9 |
| 20260503210003 | 62 | 241 | 10.0 | 15.0 | 0.00 | 0.00 | 0.00 | 28 | 1013.3 |
| 20260503205500 | 62 | 236 | 3.0 | 9.0 | 0.00 | 0.00 | 0.00 | 30 | 1013.2 |
| 20260503204956 | 62 | 260 | 6.0 | 13.0 | 0.00 | 0.00 | 0.00 | 31 | 1013.1 |
| 20260503204453 | 64 | 276 | 4.0 | 6.0 | 0.00 | 0.00 | 0.00 | 28 | 1013.3 |
| 20260503203950 | 64 | 277 | 2.0 | 13.0 | 0.00 | 0.00 | 0.00 | 30 | 1013.4 |
| 20260503203448 | 64 | 250 | 1.0 | 3.0 | 0.00 | 0.00 | 0.00 | 31 | 1013.5 |
| 20260503202944 | 63 | 250 | 2.0 | 4.0 | 0.00 | 0.00 | 0.00 | 33 | 1013.4 |
| 20260503202443 | 63 | 289 | 3.0 | 4.0 | 0.00 | 0.00 | 0.00 | 33 | 1013.5 |
| 20260503201941 | 62 | 275 | 3.0 | 8.0 | 0.00 | 0.00 | 0.00 | 31 | 1013.6 |
| 20260503201438 | 61 | 258 | 6.0 | 10.0 | 0.00 | 0.00 | 0.00 | 30 | 1013.5 |
| 20260503200935 | 62 | 275 | 1.0 | 4.0 | 0.00 | 0.00 | 0.00 | 36 | 1013.4 |
| 20260503200431 | 62 | 36 | 2.0 | 3.0 | 0.00 | 0.00 | 0.00 | 33 | 1013.8 |
| 20260503195928 | 61 | 269 | 2.0 | 4.0 | 0.00 | 0.00 | 0.00 | 29 | 1013.9 |
| 20260503195426 | 61 | 241 | 2.0 | 9.0 | 0.00 | 0.00 | 0.00 | 29 | 1014.1 |
| 20260503194922 | 61 | 296 | 5.0 | 11.0 | 0.00 | 0.00 | 0.00 | 27 | 1014.0 |
| 20260503194419 | 62 | 12 | 4.0 | 10.0 | 0.00 | 0.00 | 0.00 | 30 | 1014.1 |
| 20260503193914 | 62 | 324 | 3.0 | 7.0 | 0.00 | 0.00 | 0.00 | 31 | 1013.9 |
| 20260503193410 | 62 | 251 | 3.0 | 6.0 | 0.00 | 0.00 | 0.00 | 30 | 1014.2 |
| 20260503192906 | 62 | 290 | 5.0 | 7.0 | 0.00 | 0.00 | 0.00 | 28 | 1014.1 |
| 20260503192401 | 61 | 312 | 3.0 | 6.0 | 0.00 | 0.00 | 0.00 | 31 | 1014.3 |
| 20260503191858 | 62 | 26 | 3.0 | 6.0 | 0.00 | 0.00 | 0.00 | 32 | 1014.4 |
| 20260503191355 | 62 | 310 | 4.0 | 8.0 | 0.00 | 0.00 | 0.00 | 33 | 1014.4 |
| 20260503190852 | 60 | 288 | 3.0 | 7.0 | 0.00 | 0.00 | 0.00 | 35 | 1014.4 |
| 20260503190349 | 61 | 299 | 7.0 | 10.0 | 0.00 | 0.00 | 0.00 | 30 | 1014.4 |
| 20260503185846 | 61 | 268 | 3.0 | 9.0 | 0.00 | 0.00 | 0.00 | 29 | 1014.6 |
| 20260503185342 | 61 | 356 | 2.0 | 4.0 | 0.00 | 0.00 | 0.00 | 31 | 1014.6 |
| 20260503184837 | 60 | 283 | 2.0 | 4.0 | 0.00 | 0.00 | 0.00 | 33 | 1014.8 |
| 20260503184333 | 60 | 296 | 4.0 | 9.0 | 0.00 | 0.00 | 0.00 | 31 | 1014.8 |
| 20260503183829 | 60 | 257 | 4.0 | 10.0 | 0.00 | 0.00 | 0.00 | 29 | 1014.7 |
| 20260503183326 | 61 | 359 | 2.0 | 4.0 | 0.00 | 0.00 | 0.00 | 31 | 1014.8 |
| 20260503182824 | 60 | 291 | 2.0 | 7.0 | 0.00 | 0.00 | 0.00 | 33 | 1014.9 |
| 20260503182323 | 60 | 345 | 2.0 | 7.0 | 0.00 | 0.00 | 0.00 | 32 | 1015.0 |
| 20260503181820 | 60 | 44 | 5.0 | 11.0 | 0.00 | 0.00 | 0.00 | 31 | 1014.9 |
| 20260503181317 | 61 | 354 | 1.0 | 4.0 | 0.00 | 0.00 | 0.00 | 33 | 1015.1 |
| 20260503180813 | 61 | 342 | 4.0 | 6.0 | 0.00 | 0.00 | 0.00 | 30 | 1014.9 |
| 20260503180311 | 61 | 268 | 1.0 | 6.0 | 0.00 | 0.00 | 0.00 | 36 | 1015.0 |
| 20260503175807 | 59 | 41 | 1.0 | 6.0 | 0.00 | 0.00 | 0.00 | 33 | 1014.8 |
| 20260503175305 | 60 | 44 | 2.0 | 6.0 | 0.00 | 0.00 | 0.00 | 32 | 1014.9 |
| 20260503174800 | 60 | 282 | 4.0 | 6.0 | 0.00 | 0.00 | 0.00 | 33 | 1014.9 |
| 20260503174259 | 59 | 283 | 4.0 | 10.0 | 0.00 | 0.00 | 0.00 | 34 | 1014.8 |
| 20260503173754 | 60 | 7 | 4.0 | 7.0 | 0.00 | 0.00 | 0.00 | 33 | 1015.0 |
| 20260503173250 | 60 | 338 | 3.0 | 4.0 | 0.00 | 0.00 | 0.00 | 31 | 1015.0 |
| 20260503172747 | 59 | 255 | 5.0 | 10.0 | 0.00 | 0.00 | 0.00 | 31 | 1015.0 |
| 20260503172244 | 58 | 338 | 4.0 | 4.0 | 0.00 | 0.00 | 0.00 | 34 | 1014.9 |
| 20260503171741 | 58 | 17 | 4.0 | 14.0 | 0.00 | 0.00 | 0.00 | 35 | 1014.7 |
| 20260503171238 | 59 | 304 | 4.0 | 8.0 | 0.00 | 0.00 | 0.00 | 29 | 1015.0 |
| 20260503170735 | 58 | 267 | 6.0 | 14.0 | 0.00 | 0.00 | 0.00 | 31 | 1015.3 |
| 20260503170232 | 58 | 44 | 4.0 | 8.0 | 0.00 | 0.00 | 0.00 | 36 | 1015.3 |